Regional Weather Roundup
Issued by NWS

Home | Current Version | Previous Version | Text Only | Print | Product List | Glossary Off
Versions: 1 2 3 4 5 6 7 8 9 10 11 12 13 14 15 16 17 18 19 20 21 22 23 24 25 26 27 28 29 30 31 32 33 34 35 36 37 38 39 40 41 42 43 44 45 46 47 48 49 50

984
ASUS43 KMPX 200710
RWRMN
WEATHER ROUNDUP FOR MINNESOTA
NATIONAL WEATHER SERVICE TWIN CITIES/CHANHASSEN MN
100 AM CST TUE FEB 20 2018


NOTE: "FAIR" INDICATES FEW OR NO CLOUDS BELOW 12,000 FEET WITH NO
SIGNIFICANT WEATHER AND/OR OBSTRUCTIONS TO VISIBILITY. N/A MEANS
CURRENT SKY AND/OR WEATHER CONDITIONS ARE NOT AVAILABLE.

MNZ060>063-068>070-200800-
   Twin Cities Metro

CITY           SKY/WX    TMP DP  RH WIND       PRES   REMARKS
TWIN CITIES    FRZ DRZL  21  19  92 NE10G17   29.86F WCI  10
ST PAUL        CLOUDY    21  18  88 NE8       29.88F WCI  11
CRYSTAL        CLOUDY    20  16  84 N9        29.86F WCI   9
BLAINE         CLOUDY    21  19  93 NE7       29.86F WCI  13
LAKEVILLE      CLOUDY    18  18 100 NE8       29.84F WCI   7
EDEN PRAIRIE   CLOUDY    20  17  88 NE8       29.84F WCI  10
SOUTH ST PAUL  CLOUDY    21  18  88 NE7       29.87F WCI  12
LAKE ELMO      CLOUDY    21  19  93 NE6       29.86F WCI  14
$$
MNZ001>005-007-008-013>017-022>024-027-028-200800-
   Northwest Minnesota

CITY           SKY/WX    TMP DP  RH WIND       PRES   REMARKS
BEMIDJI        LGT SNOW   6   2  82 NE13      30.01F VSB 1   WCI -10
HALLOCK        FLURRIES   3  -2  78 N8        30.17F WCI -10
WARROAD        LGT SNOW   5  -2  72 NE8       30.14F WCI  -8
THIEF RVR FALL LGT SNOW   5   0  79 N10       30.10F WCI -10
CROOKSTON      LGT SNOW   5   1  85 N13       30.13F WCI -12
FOSSTON        LGT SNOW   3  -2  78 N10       30.04F VSB 1   WCI -12
DETROIT LAKES  LGT SNOW  10   7  85 NE8       30.01R VSB 3/4 WCI  -1
MOORHEAD       LGT SNOW   7   1  78 N14       30.08R WCI -10
PARK RAPIDS    LGT SNOW   8   3  80 N10       29.98F VSB 3/4 WCI  -6
MAHNOMEN       LGT SNOW   6   2  85 NE13      30.04R WCI -10
$$
MNZ006-009>011-018-025>026-200800-
   North Central Minnesota

CITY           SKY/WX    TMP DP  RH WIND       PRES   REMARKS
BAUDETTE       LGT SNOW   5  -1  76 NE9       30.10F WCI  -9
FLAG ISLAND    CLOUDY     3  -8  60 NE9       30.14F WCI -11
INTL FALLS     LGT SNOW   6   0  76 NE9       30.09S WCI  -8
WASKISH        LGT SNOW   7   1  78 NE5       30.08S WCI  -2
BIG FORK       FLURRIES   9   3  78 N6        30.02F WCI  -1
LONGVILLE      LGT SNOW   9   5  85 N6        30.00S WCI  -1
GRAND RAPIDS   LGT SNOW   7   5  91 N8        30.01R FOG     WCI  -6
CRANE LAKE     FLURRIES   5   0  78 NE3       30.10F
ORR            CLOUDY     5   0  78 NE3       30.02S
COOK             N/A      7   1  78 N5        30.02S WCI  -2
WALKER         LGT SNOW   7   2  82 N7        29.99F WCI  -5
$$
MNZ012-019>021-037-200800-
   Northeast Minnesota

CITY           SKY/WX    TMP DP  RH WIND       PRES   REMARKS
DULUTH         LGT SNOW  14  10  84 E20       29.90F VSB 3/4 WCI  -3
ELY            CLOUDY     3   0  85 CALM      30.01S
HIBBING        LGT SNOW   6   4  91 N8        30.00R FOG     WCI  -7
EVELETH        LGT SNOW N/A N/A N/A NE10      29.99S
DULUTH HARBOR  LGT SNOW  21  18  86 NE30G39   29.97F VSB 3/4 WCI   3
TWO HARBORS    LGT SNOW  16   9  73 NE8       29.96F WCI   5
GRAND MARAIS     N/A     12   2  64 NE9G17    30.06F WCI   0
G MARAIS ARPRT CLOUDY     3  -4  72 N10       29.95F WCI -12
$$
MNZ029>031-032-039>041-046>048-054>057-064-200800-
   West Central Minnesota

CITY           SKY/WX    TMP DP  RH WIND       PRES   REMARKS
FERGUS FALLS   LGT SNOW  10   7  85 N6        30.05R WCI   1
WHEATON        LGT SNOW   7   3  85 NW15      30.02F WCI -11
MORRIS         LGT SNOW  12   9  85 N13       29.95F WCI  -3
ALEXANDRIA     LGT SNOW  11   8  88 N10       29.96R FOG     WCI  -3
ELBOW LAKE     LGT SNOW  10   7  87 N7        30.03R WCI   0
WADENA         LGT SNOW   9   5  85 N12       29.96F VSB 1   WCI  -6
GLENWOOD       FLURRIES  12   9  85 N14       29.93F WCI  -3
APPLETON       LGT SNOW  14  10  85 N15       29.95F WCI  -1
BENSON         FLURRIES  12   9  85 NE14      29.93F WCI  -3
ORTONVILLE     LGT SNOW   7   3  85 N17G23    29.96F WCI -12
MADISON        LGT SNOW  12   9  85 N21       29.93F WCI  -6
WILLMAR        CLOUDY    14  10  85 N10       29.93F WCI   1
$$
MNZ033>034-036-042>043-049>051-058-059-200800-
   Central Minnesota

CITY           SKY/WX    TMP DP  RH WIND       PRES   REMARKS
ST CLOUD       CLOUDY    14  12  92 N6        29.90S WCI   5
SAUK CENTRE    CLOUDY    12   7  79 N10       29.92F WCI  -1
PAYNESVILLE    CLOUDY    14  11  90 N7        29.91F WCI   3
AITKIN         FLURRIES  10   5  79 N8        29.96R WCI  -1
PINE RIVER     LGT SNOW   9   5  85 N12       29.99F WCI  -6
BRAINERD       CLOUDY    12   5  73 NE13      29.95F WCI  -3
STAPLES        LGT SNOW   9   7  92 N8        29.96F WCI  -4
LONG PRAIRIE   FLURRIES  12   7  79 NW9       29.95R WCI   0
LITTLE FALLS   FLURRIES  14   5  67 NE5       29.91F WCI   6
LITCHFIELD     CLOUDY    16  14  93 N9        29.88F WCI   4
BUFFALO        CLOUDY    18  15  86 N9        29.88F WCI   7
MAPLE LAKE     CLOUDY    19  16  87 N6        29.89F WCI  11
HUTCHINSON     CLOUDY    19  16  88 N3        29.87F
$$
MNZ037-044-045-052-053-200800-
   East Central Minnesota

CITY           SKY/WX    TMP DP  RH WIND       PRES   REMARKS
PRINCETON      CLOUDY    18  14  86 N6        29.90F WCI   9
MORA           CLOUDY    14  12  92 N3        29.93R
CAMBRIDGE      CLOUDY    19  14  79 NE8       29.90R WCI   9
RUSH CITY      CLOUDY    18  16  90 NE8       29.91R WCI   8
MOOSE LAKE     CLOUDY    18  14  86 NE9G16    29.93R WCI   6
HINCKLEY       CLOUDY    19  18  93 NE9       29.92R WCI   9
CLOQUET        LGT SNOW  16  12  86 NE10G24   29.92F WCI   3
MCGREGOR       CLOUDY    12   9  85 NE12      29.92F WCI  -2
$$
MNZ071>073-080-081-089-090-097-098-200800-
   Southwest Minnesota

CITY           SKY/WX    TMP DP  RH WIND       PRES   REMARKS
MONTEVIDEO     FLURRIES  12  10  92 NE17      29.89F WCI  -5
GRANITE FALLS  CLOUDY    16  12  86 N14       29.87F WCI   1
CANBY          LGT SNOW  10   6  87 NW14G24   29.92F WCI  -7
MARSHALL       FLURRIES  12   9  87 N16       29.89F WCI  -5
REDWOOD FALLS  CLOUDY    15  13  91 N7        29.90F WCI   5
OLIVIA         CLOUDY    18  14  86 N10       29.90F WCI   6
PIPESTONE      LGT SNOW  10   9  92 N14G22    29.81F WCI  -5
WINDOM         SNOW      16   3  57 CALM      29.79F VSB 1/2
WORTHINGTON    LGT SNOW  14  12  92 N17       29.77F FOG     WCI  -3
JACKSON        CLOUDY    18  16  93 N10       29.81F FOG     WCI   6
TRACY          CLOUDY    15  13  93 N14       29.82F WCI   0
SLAYTON        CLOUDY    12  11  92 N16       29.78F WCI  -4
$$
MNZ065>067-074>077-082>085-091>093-200800-
   South Central Minnesota

CITY           SKY/WX    TMP DP  RH WIND       PRES   REMARKS
MANKATO        CLOUDY    21  19  92 NE10      29.82F WCI  10
NEW ULM        CLOUDY    18  16  93 N5        29.86F WCI  11
ST JAMES       CLOUDY    18  18 100 N9        29.83F FOG     WCI   6
FAIRMONT       LGT SNOW  19  18  95 N8        29.83F FOG     WCI   9
GLENCOE        CLOUDY    19  16  88 N6        29.84F WCI  11
FARIBAULT      CLOUDY    19  19 100 N5        29.82S FOG     WCI  13
OWATONNA       CLOUDY    21  19  93 N3        29.81R
WASECA         CLOUDY    21  19  93 N7        29.82F WCI  13
ALBERT LEA     CLOUDY    23  21  93 N5        29.78F WCI  17
$$
MNZ078>079-086>088-094>096-200800-
   Southeast Minnesota

CITY           SKY/WX    TMP DP  RH WIND       PRES   REMARKS
ROCHESTER      LGT SNOW  24  24 100 N10       29.78F FOG     WCI  14
RED WING       CLOUDY    23  18  80 E7        29.83F WCI  15
STANTON        CLOUDY    22  20  91 NE6       29.83S WCI  15
DODGE CENTER   CLOUDY    21  21 100 N6        29.80R FOG     WCI  14
WINONA         CLOUDY    30  28  93 E6        29.80F WCI  24
AUSTIN         CLOUDY    25  23  93 N5        29.78S FOG     WCI  19
PRESTON        CLOUDY    28  27  96 NE6       29.77F FOG     WCI  21
$$
ABBREVIATIONS USED IN REMARKS
   TC - TEMPERATURES IN CELSIUS
  WCI - WIND CHILL INDEX
   HX - HEAT INDEX
  VSB - VISIBILITY
$$




USA.gov is the U.S. government's official web portal to all federal, state and local government web resources and services.